[[[{"header":{"parameterUnit":"kt","parameterCategory":2,"dx":1,"dy":1,"la1":30.253999710083008,"la2":30.299108505249023,"lo1":-89.0895004272461,"lo2":-89.04439544677734,"nx":28,"ny":28,"refTime":"2022-10-11T21:00:00:Z","depth":"0","parameterNumber":2,"parameterNumberName":"U-component_of_CURRENTS"},"data":[0.2409,0.2518,0.2513,0.255,0.2533,0.2468,0.2394,0.2262,0.2132,0.1777,0.1389,0.1218,0.0586,-0.0062,-0.0463,-0.0402,-0.0324,-0.0439,-0.0192,0.0107,0.0203,0.0295,0.0047,-0.0619,-0.062,-0.0777,-0.0779,-0.0781,0.2291,0.2336,0.2394,0.2438,0.2442,0.2422,0.2395,0.2324,0.2305,0.2219,0.2199,0.1717,0.1409,0.1165,0.0661,0.0487,0.0609,0.044,0.0401,0.0492,0.0994,0.0747,0.0218,0.0218,0.0218,0.0219,0.0219,0.0219,0.2132,0.2174,0.2245,0.2284,0.232,0.232,0.2292,0.233,0.2372,0.2374,0.245,0.2343,0.2067,0.1975,0.1984,0.1566,0.1855,0.1425,0.1451,0.1502,0.128,0.1676,0.157,0.1574,0.1577,0.1581,0.1584,0,0.2065,0.2068,0.2084,0.2156,0.2192,0.2196,0.2239,0.227,0.2331,0.2405,0.249,0.2539,0.2583,0.2457,0.2453,0.2486,0.2411,0.2518,0.2376,0.1741,0.1547,0.1519,0.2196,0.2254,0.2262,0.2268,0.2273,0.2276,0.2031,0.2029,0.2033,0.2067,0.2067,0.2094,0.214,0.2174,0.2235,0.2378,0.2457,0.263,0.2702,0.2911,0.2895,0.3005,0.2961,0.2719,0.2601,0.2278,0.2232,0.221,0.2189,0.2366,0.2354,0.2345,0.2338,0,0.2033,0.2019,0.2024,0.2026,0.2033,0.2051,0.2107,0.2166,0.2234,0.2359,0.242,0.2589,0.2776,0.2932,0.3232,0.319,0.3152,0.3294,0.2869,0.2801,0.2341,0.2294,0.2313,0.2283,0.3168,0.3161,0.3156,0,0.2025,0.2029,0.2014,0.201,0.2036,0.2044,0.2095,0.2138,0.2234,0.2312,0.2419,0.2518,0.2757,0.2925,0.3049,0.3127,0.3357,0.3116,0.3108,0.282,0.276,0.2603,0.2542,0.3534,0.3532,0.353,0.3529,0,0.2021,0.2022,0.2018,0.2019,0.2036,0.2054,0.2073,0.214,0.2186,0.2308,0.2379,0.2543,0.264,0.2854,0.2954,0.2936,0.3267,0.326,0.3066,0.3041,0.2819,0.2759,0.2741,0.3526,0.3526,0.3525,0.3524,0,0.2016,0.2004,0.2008,0.2017,0.2024,0.2039,0.2094,0.2123,0.2217,0.2248,0.2335,0.2374,0.2527,0.2494,0.2785,0.2683,0.2792,0.2869,0.2881,0.2578,0.2462,0.2389,0.2455,0.2242,0.2928,0.2923,0.2919,0,0.2004,0.1997,0.1988,0.2006,0.2009,0.2028,0.206,0.2097,0.2123,0.2186,0.223,0.2269,0.2231,0.2248,0.2379,0.2474,0.261,0.243,0.2719,0.2726,0.2445,0.2562,0.2234,0.2404,0.2859,0.2865,0.287,0,0.1988,0.1965,0.1967,0.1966,0.1977,0.1985,0.2025,0.2057,0.2084,0.2112,0.2167,0.2166,0.2184,0.2177,0.2151,0.2275,0.25,0.2278,0.2285,0.2399,0.2852,0.2517,0.2525,0.2556,0.2564,0.257,0.2822,0,0.1956,0.195,0.1955,0.195,0.1961,0.1973,0.1982,0.2006,0.2,0.2005,0.2047,0.2034,0.2045,0.2028,0.1987,0.2132,0.2126,0.2119,0.2116,0.2209,0.2292,0.233,0.1863,0.1862,0.1861,0.186,0,0,0.1947,0.1925,0.1912,0.1914,0.1916,0.1912,0.1925,0.1935,0.1925,0.1937,0.1912,0.1919,0.1892,0.1927,0.1935,0.1902,0.1986,0.1907,0.2117,0.2145,0.2171,0.2259,0.2296,0.1857,0.1857,0.1857,0.1856,0,0.192,0.1905,0.1905,0.1906,0.1904,0.1901,0.1903,0.1895,0.1899,0.1898,0.1872,0.1881,0.1846,0.1856,0.1845,0.1879,0.1934,0.1858,0.1931,0.21,0.2129,0.2156,0.2247,0.2282,0.1853,0.1853,0.1853,0,0.1903,0.188,0.1877,0.1862,0.1861,0.187,0.1841,0.1851,0.186,0.1811,0.182,0.1805,0.1774,0.1787,0.1788,0.1768,0.19,0.1788,0.1793,0.1832,0.2008,0.2039,0.2067,0.1721,0.1721,0.1721,0,0,0.1889,0.1877,0.1859,0.1856,0.1858,0.1841,0.1841,0.1836,0.1818,0.1814,0.1798,0.1777,0.1769,0.176,0.1757,0.1758,0.183,0.1775,0.1781,0.1787,0.1828,0.2003,0.2032,0.1721,0.1721,0.1721,0,0,0.1883,0.1849,0.1841,0.1831,0.1833,0.1815,0.1825,0.1808,0.1798,0.1796,0.1763,0.1758,0.1767,0.1741,0.1738,0.1758,0.1727,0.1727,0.1787,0.1795,0.18,0.1856,0.1726,0,0,0,0,0,0.1852,0.1852,0.1844,0.1839,0.1816,0.1818,0.1818,0.1806,0.1785,0.18,0.1771,0.1762,0.1737,0.1734,0.1731,0.1763,0.1716,0.1717,0.1718,0.1796,0.1804,0.1811,0,0,0,0,0,0,0.185,0.1843,0.1844,0.1823,0.1817,0.1817,0.1791,0.1788,0.1784,0.1782,0.1766,0.1762,0.1749,0.1735,0.1732,0.1763,0.1727,0.1717,0.1717,0.1718,0.1799,0.1805,0.1811,0,0,0,0,0,0.1848,0.1842,0.1803,0.1823,0.1819,0.1804,0.1791,0.1788,0.1787,0.1767,0.1763,0.1778,0.175,0.1746,0.1733,0.1765,0.1728,0.1727,0.1717,0.1718,0.1718,0.1802,0,0,0,0,0,0,0.1846,0.1848,0.1803,0.1801,0.1819,0.1805,0.1801,0.1789,0.1771,0.1768,0.1778,0.1777,0.1751,0.1748,0.1745,0.1768,0.173,0.1729,0.1728,0.1717,0.1718,0.1718,0,0,0,0,0,0,0.1851,0.1847,0.1802,0.1797,0.1795,0.1806,0.1802,0.1793,0.1771,0.1784,0.1782,0.1777,0.1747,0.1749,0.1747,0.1735,0.1731,0.173,0.1729,0.1729,0.1718,0.1718,0,0,0,0,0,0,0.1849,0.1846,0.1797,0.1796,0.1794,0.1782,0.1798,0.1771,0.1776,0.1785,0.1774,0.1774,0.1748,0.1746,0.1748,0.1737,0.1735,0.1731,0.173,0.173,0.1729,0,0,0,0,0,0,0,0.1848,0.1867,0.1807,0.1795,0.1794,0.179,0.179,0.179,0.1776,0.1775,0.1774,0.1774,0.1736,0.1735,0.1734,0.1739,0,0,0.1731,0.173,0,0,0,0,0,0,0,0,0.1869,0.1868,0.1806,0.1806,0.1806,0.179,0.179,0.179,0.1775,0.1775,0.1775,0.1774,0.1736,0.1735,0.1734,0,0,0,0,0,0,0,0,0,0,0,0,0,0,0,0.1806,0.1806,0,0.179,0.179,0.179,0.1775,0.1775,0.1775,0.1774,0.1736,0.1735,0.1734,0,0,0,0,0,0,0,0,0,0,0,0,0,0,0,0,0,0,0,0,0,0,0,0,0,0,0,0,0,0,0,0,0,0,0,0,0,0,0,0,0,0,0,0,0,0,0,0,0,0,0,0,0,0,0,0,0,0,0,0,0,0,0,0,0,0,0,0,0]}],[{"header":{"parameterUnit":"kt","parameterCategory":2,"dx":1,"dy":1,"la1":30.253999710083008,"la2":30.299108505249023,"lo1":-89.0895004272461,"lo2":-89.04439544677734,"nx":28,"ny":28,"refTime":"2022-10-11T21:00:00:Z","depth":"0","parameterNumber":3,"parameterNumberName":"V-component_of_CURRENTS"},"data":[0.0095,0.0184,0.0212,0.0375,0.0445,0.0558,0.0639,0.0714,0.0822,0.0915,0.0932,0.0971,0.092,0.1125,0.1037,0.0983,0.1007,0.1002,0.1029,0.0992,0.1,0.1008,0.0924,0.0935,0.0935,0.1074,0.1076,0.1076,0.0032,0.0083,0.0155,0.0273,0.0378,0.0427,0.062,0.0689,0.087,0.1075,0.1238,0.1267,0.1272,0.1218,0.1044,0.0957,0.0956,0.0926,0.1017,0.1014,0.0952,0.086,0.0857,0.0857,0.0857,0.0857,0.0857,0.0857,-0.0058,-0.0012,0.0065,0.0154,0.0255,0.0408,0.0492,0.0668,0.0877,0.1144,0.1311,0.1459,0.1495,0.1346,0.1266,0.1075,0.1124,0.0969,0.1014,0.1078,0.0995,0.0806,0.0932,0.0932,0.0932,0.0933,0.0933,0,-0.0098,-0.0074,-0.0019,0.0077,0.0166,0.0288,0.0443,0.0566,0.079,0.0987,0.1275,0.1419,0.1545,0.1512,0.1382,0.1274,0.1218,0.1155,0.1171,0.1018,0.0988,0.0954,0.0849,0.107,0.1071,0.1072,0.1072,0.1073,-0.0143,-0.0106,-0.002,0.003,0.0067,0.0179,0.0276,0.0429,0.0582,0.0931,0.1074,0.1315,0.1453,0.1555,0.1429,0.1341,0.1281,0.1193,0.1035,0.0954,0.0961,0.0993,0.0968,0.1086,0.1084,0.1083,0.1082,0,-0.0157,-0.013,-0.0063,0.0023,0.0058,0.0129,0.0284,0.0414,0.0575,0.0818,0.0901,0.1142,0.1297,0.1297,0.14,0.1272,0.1275,0.1206,0.1101,0.1076,0.0909,0.0915,0.1202,0.1194,0.1164,0.1163,0.1162,0,-0.0174,-0.013,-0.0076,-0.0049,0.005,0.0086,0.023,0.0306,0.0487,0.0656,0.0744,0.0927,0.1,0.1115,0.1036,0.1053,0.1191,0.0917,0.0911,0.086,0.0839,0.0873,0.0877,0.1101,0.11,0.1098,0.1097,0,-0.0208,-0.0148,-0.01,-0.0085,-0.0015,0.0034,0.0081,0.02,0.0293,0.0488,0.0622,0.0754,0.0878,0.0916,0.0883,0.0813,0.1058,0.0977,0.0843,0.0832,0.0858,0.0837,0.1047,0.1095,0.1095,0.1094,0.1093,0,-0.0236,-0.0198,-0.0151,-0.0072,-0.0055,-0.0029,0.0091,0.0128,0.0269,0.0323,0.0433,0.0476,0.0601,0.0481,0.065,0.0567,0.0552,0.0562,0.057,0.0478,0.0367,0.0504,0.0653,0.0645,0.0584,0.058,0.0577,0,-0.0269,-0.0216,-0.0205,-0.0159,-0.0134,-0.0124,-0.0083,-0.0037,0.001,0.0126,0.0152,0.0242,0.0119,0.0174,0.0233,0.0294,0.0356,0.0209,0.0423,0.0429,0.0322,0.0461,0.0424,0.0593,0.0526,0.0532,0.0535,0,-0.0294,-0.0256,-0.025,-0.0222,-0.0216,-0.0195,-0.0176,-0.0126,-0.0043,-0.0066,0.0064,0.0019,0.0057,0.0064,0.0037,0.0113,0.0263,0.0074,0.0079,0.0159,0.0527,0.0403,0.0424,0.0282,0.0288,0.0294,0.0496,0,-0.0302,-0.0281,-0.027,-0.0245,-0.0239,-0.0225,-0.0223,-0.0211,-0.0213,-0.0191,-0.0129,-0.0154,-0.0099,-0.0137,-0.0181,-0.005,-0.0066,-0.0083,-0.0084,0.0002,0.0067,0.0099,-0.0286,-0.0287,-0.0288,-0.0289,0,0,-0.0332,-0.0297,-0.0294,-0.0275,-0.0264,-0.0275,-0.0257,-0.0261,-0.0267,-0.0232,-0.0278,-0.0236,-0.0278,-0.0207,-0.0214,-0.025,-0.019,-0.0246,-0.0074,-0.005,-0.0028,0.0041,0.0072,-0.029,-0.029,-0.0291,-0.0291,0,-0.0323,-0.0315,-0.0296,-0.0292,-0.0281,-0.0282,-0.0277,-0.0277,-0.0277,-0.0281,-0.0292,-0.0276,-0.0322,-0.03,-0.0301,-0.0268,-0.0243,-0.0297,-0.0215,-0.0086,-0.0062,-0.004,0.0033,0.0061,-0.0293,-0.0293,-0.0293,0,-0.0336,-0.0316,-0.0311,-0.0293,-0.0294,-0.0287,-0.0295,-0.0289,-0.028,-0.0314,-0.0318,-0.0333,-0.0349,-0.035,-0.0354,-0.0365,-0.0267,-0.0361,-0.0357,-0.0306,-0.0172,-0.0146,-0.0122,-0.0414,-0.0414,-0.0414,0,0,-0.0331,-0.0312,-0.0305,-0.0292,-0.0291,-0.0293,-0.0294,-0.0295,-0.0302,-0.0308,-0.033,-0.0345,-0.0352,-0.0362,-0.0379,-0.0384,-0.0322,-0.0374,-0.0369,-0.0364,-0.0312,-0.0177,-0.0153,-0.0415,-0.0415,-0.0416,0,0,-0.0333,-0.0311,-0.0312,-0.0295,-0.0295,-0.0295,-0.0296,-0.0297,-0.0312,-0.0313,-0.0341,-0.0349,-0.0357,-0.0375,-0.0386,-0.0381,-0.0405,-0.0404,-0.0369,-0.0363,-0.0357,-0.0289,-0.0416,0,0,0,0,0,-0.0323,-0.031,-0.0311,-0.0308,-0.0297,-0.0293,-0.0294,-0.0302,-0.0302,-0.0305,-0.0322,-0.0344,-0.0381,-0.0391,-0.04,-0.0385,-0.043,-0.0427,-0.0425,-0.0382,-0.0375,-0.0369,0,0,0,0,0,0,-0.0321,-0.0316,-0.0312,-0.0308,-0.0306,-0.0293,-0.0301,-0.0304,-0.0303,-0.0304,-0.0338,-0.0345,-0.0368,-0.039,-0.0396,-0.0382,-0.0413,-0.0429,-0.0427,-0.0425,-0.038,-0.0374,-0.0368,0,0,0,0,0,-0.032,-0.0316,-0.0293,-0.0309,-0.0307,-0.0313,-0.0301,-0.0304,-0.0307,-0.0336,-0.0342,-0.0311,-0.0368,-0.0375,-0.0394,-0.0377,-0.0409,-0.0411,-0.0428,-0.0426,-0.0424,-0.0377,0,0,0,0,0,0,-0.0319,-0.0328,-0.0293,-0.0294,-0.031,-0.0315,-0.0314,-0.0304,-0.034,-0.0344,-0.0311,-0.0312,-0.0367,-0.0373,-0.0379,-0.0374,-0.0405,-0.0408,-0.0409,-0.0426,-0.0425,-0.0424,0,0,0,0,0,0,-0.033,-0.0328,-0.0294,-0.0294,-0.0295,-0.0316,-0.0315,-0.034,-0.0341,-0.0314,-0.0315,-0.0311,-0.0366,-0.0372,-0.0377,-0.0414,-0.0403,-0.0405,-0.0407,-0.0408,-0.0425,-0.0424,0,0,0,0,0,0,-0.033,-0.0328,-0.0295,-0.0295,-0.0296,-0.0304,-0.034,-0.0336,-0.0319,-0.0313,-0.0319,-0.0319,-0.0365,-0.037,-0.0375,-0.041,-0.0413,-0.0403,-0.0404,-0.0405,-0.0406,0,0,0,0,0,0,0,-0.0329,-0.0334,-0.0287,-0.0296,-0.0296,-0.0296,-0.0297,-0.0298,-0.0319,-0.0319,-0.0319,-0.0319,-0.0389,-0.0392,-0.0394,-0.0406,0,0,-0.0402,-0.0404,0,0,0,0,0,0,0,0,-0.0335,-0.0334,-0.0287,-0.0286,-0.0286,-0.0297,-0.0297,-0.0297,-0.0319,-0.0319,-0.0319,-0.0319,-0.039,-0.0392,-0.0394,0,0,0,0,0,0,0,0,0,0,0,0,0,0,0,-0.0286,-0.0286,0,-0.0297,-0.0297,-0.0297,-0.0319,-0.0319,-0.0319,-0.0319,-0.039,-0.0392,-0.0394,0,0,0,0,0,0,0,0,0,0,0,0,0,0,0,0,0,0,0,0,0,0,0,0,0,0,0,0,0,0,0,0,0,0,0,0,0,0,0,0,0,0,0,0,0,0,0,0,0,0,0,0,0,0,0,0,0,0,0,0,0,0,0,0,0,0,0,0,0]}]],[[{"header":{"parameterUnit":"kt","parameterCategory":2,"dx":1,"dy":1,"la1":30.253999710083008,"la2":30.299108505249023,"lo1":-89.0895004272461,"lo2":-89.04439544677734,"nx":28,"ny":28,"refTime":"2022-10-11T21:00:00:Z","depth":"2","parameterNumber":2,"parameterNumberName":"U-component_of_CURRENTS"},"data":[0.2303,0.2427,0.2474,0.2612,0.2681,0.2672,0.2627,0.2388,0.2152,0.1729,0.1395,0.1132,0.0953,0.0573,0.0473,0.0334,0.0704,0.0308,0.0794,0.1281,0.1357,0.1523,0.1304,0,0,0,0,0,0.2216,0.2304,0.2439,0.2529,0.2599,0.2654,0.2688,0.2564,0.2481,0.2284,0.214,0.1608,0.1202,0.1038,0.0728,0.0569,0.0778,0.0562,0.09,0.0983,0.1058,0.0865,0.0239,0.0237,0.0236,0.0234,0,0,0.2114,0.2157,0.2267,0.2377,0.2481,0.2549,0.2545,0.2599,0.2639,0.2549,0.2632,0.2333,0.2123,0.146,0.1356,0.1277,0.1449,0.1418,0.1466,0.152,0.1332,0.1079,0.0838,0.084,0.0843,0.0845,0.0846,0,0.2039,0.2064,0.2094,0.2239,0.2326,0.2388,0.2495,0.2542,0.263,0.2695,0.2769,0.2716,0.2544,0.2266,0.1951,0.1909,0.2235,0.2003,0.2623,0.221,0.1978,0.1941,0.1959,0.1945,0.1954,0.1961,0.1966,0.1969,0.1993,0.2015,0.2061,0.2124,0.2149,0.2222,0.2326,0.2387,0.2488,0.2646,0.2749,0.2826,0.2796,0.2788,0.2661,0.2543,0.276,0.2239,0.2172,0.2502,0.246,0.2453,0.2444,0.2066,0.2053,0.2043,0.2035,0,0.1991,0.1994,0.202,0.2061,0.2092,0.2134,0.2253,0.2353,0.2441,0.2607,0.2669,0.2851,0.294,0.3008,0.322,0.3096,0.3109,0.2981,0.2676,0.2593,0.2535,0.2508,0.2595,0.258,0.2567,0.2556,0.2547,0,0.1983,0.1998,0.2014,0.2017,0.2087,0.2104,0.2215,0.228,0.2418,0.2536,0.2637,0.2756,0.2973,0.3093,0.3142,0.3059,0.3375,0.2917,0.288,0.2742,0.2679,0.3244,0.3214,0.3505,0.3504,0.3504,0.3503,0,0.1971,0.1987,0.2014,0.2015,0.2061,0.2103,0.2149,0.2265,0.2346,0.2494,0.2578,0.2753,0.2848,0.302,0.3048,0.3051,0.3295,0.3312,0.2898,0.286,0.2744,0.2678,0.3503,0.3502,0.3502,0.3502,0.3502,0,0.1957,0.1961,0.199,0.2018,0.2035,0.2065,0.2175,0.2226,0.2363,0.2412,0.2519,0.2557,0.271,0.2663,0.2913,0.2848,0.2884,0.293,0.2936,0.2501,0.2366,0.2282,0.232,0.288,0.2876,0.2872,0.2869,0,0.1943,0.1953,0.1956,0.1986,0.2001,0.2031,0.21,0.2155,0.2213,0.2306,0.2356,0.2416,0.2366,0.2384,0.2521,0.2601,0.2695,0.2562,0.2774,0.2777,0.2371,0.2446,0.2267,0.2284,0.2819,0.2825,0.2828,0,0.192,0.1913,0.1918,0.192,0.1949,0.1956,0.2031,0.2091,0.2151,0.2182,0.2277,0.2283,0.2297,0.2301,0.2273,0.2404,0.2592,0.2403,0.241,0.2441,0.2903,0.243,0.2417,0.2699,0.2707,0.2714,0.2789,0,0.1888,0.1889,0.1904,0.1909,0.1923,0.1939,0.1959,0.1993,0.2019,0.204,0.2106,0.209,0.2127,0.2112,0.2074,0.2237,0.2197,0.2223,0.2223,0.2329,0.2326,0.2358,0.1964,0.1962,0.1961,0.196,0,0,0.1876,0.1864,0.185,0.1856,0.1866,0.1865,0.1884,0.1911,0.191,0.1942,0.191,0.1966,0.1939,0.2004,0.2007,0.1982,0.2045,0.2002,0.223,0.226,0.2288,0.2296,0.2327,0.1957,0.1957,0.1956,0.1956,0,0.1851,0.1842,0.1846,0.1838,0.1838,0.1849,0.185,0.1856,0.1871,0.1893,0.1872,0.1884,0.189,0.1899,0.1902,0.1956,0.1994,0.1944,0.2034,0.2211,0.2243,0.2271,0.2285,0.2314,0.1952,0.1953,0.1953,0,0.1826,0.1813,0.1804,0.179,0.18,0.1816,0.179,0.1805,0.1826,0.1783,0.1827,0.181,0.1797,0.1825,0.1833,0.1817,0.196,0.1866,0.1872,0.1909,0.2093,0.2126,0.2156,0.1785,0.1785,0.1785,0,0,0.1816,0.1805,0.1782,0.1783,0.179,0.1789,0.1798,0.1786,0.1782,0.1784,0.1783,0.1782,0.1786,0.1789,0.1787,0.1821,0.1872,0.1849,0.1857,0.1864,0.1903,0.2087,0.2118,0.1784,0.1784,0.1784,0,0,0.1808,0.1775,0.1761,0.1762,0.1752,0.1753,0.1778,0.1769,0.1774,0.1779,0.1759,0.1754,0.177,0.1756,0.1746,0.1795,0.1757,0.1759,0.1822,0.1831,0.1839,0.1887,0.1726,0,0,0,0,0,0.1767,0.1778,0.1764,0.1761,0.176,0.176,0.1765,0.1757,0.1762,0.1765,0.1757,0.1748,0.174,0.173,0.1734,0.178,0.1774,0.1776,0.1778,0.1865,0.1875,0.1883,0,0,0,0,0,0,0.1766,0.1761,0.1765,0.1762,0.1762,0.176,0.1747,0.1747,0.1759,0.1755,0.1752,0.1748,0.1732,0.1729,0.1732,0.1776,0.1725,0.1775,0.1776,0.1778,0.1868,0.1876,0.1883,0,0,0,0,0,0.1765,0.1761,0.1748,0.1764,0.1764,0.1759,0.1745,0.1744,0.1759,0.1741,0.1738,0.1749,0.1734,0.1734,0.173,0.1775,0.1723,0.1724,0.1776,0.1777,0.1778,0.1872,0,0,0,0,0,0,0.1764,0.1781,0.175,0.1751,0.1741,0.1758,0.1756,0.1743,0.1745,0.1742,0.1736,0.1732,0.1736,0.1735,0.1735,0.1776,0.1721,0.1722,0.1723,0.1777,0.1778,0.1778,0,0,0,0,0,0,0.1783,0.1782,0.1751,0.1722,0.1721,0.1758,0.1756,0.1774,0.1744,0.174,0.1737,0.1734,0.1717,0.1737,0.1737,0.1767,0.172,0.1721,0.1722,0.1722,0.1777,0.1778,0,0,0,0,0,0,0.1783,0.1782,0.1722,0.1721,0.172,0.1744,0.1774,0.1765,0.1744,0.174,0.1739,0.1736,0.1718,0.1718,0.1738,0.1769,0.1768,0.172,0.1721,0.1721,0.1722,0,0,0,0,0,0,0,0.1784,0.1776,0.1733,0.1721,0.172,0.1766,0.1768,0.1769,0.1744,0.1741,0.1739,0.1737,0.1714,0.1715,0.1716,0.177,0,0,0.172,0.172,0,0,0,0,0,0,0,0,0.1777,0.1776,0.1733,0.1733,0.1733,0.1767,0.1768,0.1768,0.1743,0.1742,0.174,0.1738,0.1714,0.1715,0.1716,0,0,0,0,0,0,0,0,0,0,0,0,0,0,0,0.1733,0.1733,0,0.1767,0.1768,0.1768,0.1743,0.1742,0.174,0.1739,0.1714,0.1715,0.1716,0,0,0,0,0,0,0,0,0,0,0,0,0,0,0,0,0,0,0,0,0,0,0,0,0,0,0,0,0,0,0,0,0,0,0,0,0,0,0,0,0,0,0,0,0,0,0,0,0,0,0,0,0,0,0,0,0,0,0,0,0,0,0,0,0,0,0,0,0]}],[{"header":{"parameterUnit":"kt","parameterCategory":2,"dx":1,"dy":1,"la1":30.253999710083008,"la2":30.299108505249023,"lo1":-89.0895004272461,"lo2":-89.04439544677734,"nx":28,"ny":28,"refTime":"2022-10-11T21:00:00:Z","depth":"2","parameterNumber":3,"parameterNumberName":"V-component_of_CURRENTS"},"data":[0.0381,0.0486,0.053,0.0716,0.0789,0.0894,0.096,0.1063,0.1126,0.1202,0.1165,0.1187,0.1021,0.0802,0.0674,0.0554,0.0607,0.0537,0.0562,0.0677,0.0694,0.0645,0.057,0,0,0,0,0,0.0321,0.0387,0.0473,0.0597,0.0713,0.0721,0.0884,0.0969,0.1164,0.1296,0.1448,0.127,0.1129,0.0984,0.0681,0.0526,0.0564,0.0502,0.0579,0.0593,0.0607,0.0552,0.0462,0.0462,0.0463,0.0463,0,0,0.0245,0.0304,0.0384,0.0463,0.0553,0.0678,0.075,0.092,0.1115,0.1354,0.1484,0.155,0.1436,0.1046,0.0924,0.0749,0.0726,0.0619,0.0628,0.0639,0.0581,0.0482,0.0501,0.0501,0.0502,0.0502,0.0502,0,0.0208,0.0229,0.0294,0.037,0.0447,0.0545,0.0665,0.0772,0.0962,0.115,0.1414,0.1518,0.1502,0.1359,0.1096,0.0955,0.0895,0.0804,0.0948,0.076,0.0663,0.0637,0.0631,0.073,0.0732,0.0733,0.0734,0.0735,0.0179,0.0199,0.0272,0.0321,0.0348,0.0423,0.0498,0.0611,0.0754,0.1044,0.1182,0.1353,0.1453,0.1426,0.1233,0.1051,0.1032,0.0859,0.0752,0.0759,0.0735,0.0722,0.0709,0.0754,0.0752,0.075,0.0748,0,0.0168,0.019,0.0251,0.0315,0.0328,0.038,0.0499,0.061,0.073,0.0942,0.1015,0.1215,0.1306,0.1259,0.1289,0.1134,0.1073,0.0984,0.089,0.0864,0.0734,0.0718,0.0853,0.085,0.0847,0.0845,0.0843,0,0.0159,0.0196,0.0238,0.0268,0.0327,0.0371,0.0465,0.0526,0.0672,0.0805,0.0871,0.1025,0.1062,0.1127,0.1023,0.0966,0.1091,0.0815,0.0804,0.0767,0.0748,0.0867,0.0852,0.0995,0.0995,0.0994,0.0994,0,0.0139,0.0201,0.0231,0.0257,0.0325,0.0358,0.039,0.047,0.0542,0.0685,0.0797,0.0861,0.097,0.0959,0.0913,0.0867,0.1004,0.0955,0.0779,0.0766,0.0783,0.0765,0.0993,0.0993,0.0993,0.0993,0.0993,0,0.0141,0.0171,0.0212,0.0286,0.0298,0.0325,0.0409,0.0442,0.0536,0.057,0.0633,0.0665,0.0745,0.0659,0.0747,0.0704,0.0663,0.0662,0.0665,0.0583,0.0507,0.0529,0.0591,0.0639,0.0636,0.0634,0.0632,0,0.0114,0.0165,0.0185,0.0234,0.0257,0.0283,0.0308,0.0344,0.0366,0.0452,0.0446,0.0504,0.0399,0.0442,0.047,0.0528,0.0536,0.0455,0.0589,0.0592,0.048,0.0545,0.0508,0.0558,0.0602,0.0605,0.0607,0,0.0101,0.0153,0.0157,0.0188,0.021,0.0243,0.0251,0.0288,0.0335,0.0317,0.0402,0.0343,0.0369,0.0368,0.0351,0.0398,0.0476,0.0379,0.0383,0.0399,0.0638,0.0514,0.0522,0.0509,0.0513,0.0517,0.0584,0,0.0113,0.0137,0.0143,0.0182,0.0202,0.0221,0.0238,0.0255,0.0234,0.0247,0.0274,0.0267,0.0301,0.0257,0.0231,0.0305,0.0283,0.0294,0.0297,0.0347,0.0359,0.0378,0.0159,0.0159,0.0159,0.0159,0,0,0.0085,0.0123,0.0144,0.0172,0.019,0.0195,0.0217,0.0216,0.024,0.0256,0.0229,0.0237,0.0207,0.0237,0.0232,0.0205,0.0238,0.0186,0.0301,0.0316,0.033,0.0347,0.0364,0.0159,0.0159,0.0159,0.0159,0,0.01,0.0113,0.0133,0.0166,0.0193,0.0199,0.0206,0.0226,0.0227,0.0228,0.0224,0.0234,0.0185,0.0204,0.0195,0.0202,0.0199,0.0164,0.0203,0.0296,0.0311,0.0325,0.0344,0.036,0.0159,0.0159,0.0159,0,0.01,0.0126,0.0143,0.0187,0.0192,0.0212,0.0217,0.0228,0.0242,0.0229,0.022,0.021,0.0196,0.0183,0.0175,0.0169,0.0189,0.0136,0.0136,0.0178,0.0276,0.0292,0.0307,0.0127,0.0126,0.0126,0,0,0.0107,0.0133,0.0176,0.0193,0.0199,0.0212,0.0217,0.0232,0.024,0.0239,0.0227,0.0209,0.0197,0.0186,0.0176,0.015,0.0195,0.0131,0.0132,0.0133,0.0174,0.0272,0.0287,0.0125,0.0125,0.0125,0,0,0.0112,0.0162,0.0173,0.0192,0.0227,0.0245,0.0236,0.0245,0.0244,0.0227,0.0215,0.0212,0.0202,0.0189,0.0184,0.0153,0.015,0.015,0.0148,0.015,0.0152,0.0205,0.0153,0,0,0,0,0,0.0153,0.0159,0.0169,0.0176,0.0202,0.024,0.024,0.0249,0.0229,0.0245,0.0235,0.0206,0.0197,0.0192,0.0182,0.0155,0.0115,0.0116,0.0118,0.0111,0.0114,0.0115,0,0,0,0,0,0,0.0156,0.0167,0.0168,0.0188,0.0194,0.0238,0.0227,0.0228,0.023,0.0233,0.0208,0.0205,0.0195,0.0194,0.0185,0.016,0.0156,0.0115,0.0117,0.0118,0.0112,0.0114,0.0115,0,0,0,0,0,0.0159,0.0167,0.0216,0.0186,0.0192,0.0207,0.0227,0.0229,0.0226,0.0213,0.021,0.0237,0.0195,0.0187,0.0188,0.0165,0.0161,0.0158,0.0116,0.0118,0.0119,0.0113,0,0,0,0,0,0,0.0161,0.015,0.0216,0.0217,0.0199,0.0205,0.021,0.0229,0.0204,0.0204,0.024,0.0242,0.0194,0.0188,0.0182,0.0168,0.0166,0.0163,0.0161,0.0117,0.0118,0.0119,0,0,0,0,0,0,0.0146,0.0151,0.0216,0.0232,0.0234,0.0204,0.0208,0.0173,0.0202,0.0231,0.0233,0.0241,0.0199,0.0189,0.0184,0.0128,0.017,0.0167,0.0164,0.0163,0.0118,0.0119,0,0,0,0,0,0,0.0148,0.0152,0.0231,0.0233,0.0234,0.0235,0.0169,0.0191,0.0236,0.023,0.0239,0.0241,0.0199,0.0195,0.0185,0.0131,0.0129,0.0169,0.0167,0.0166,0.0165,0,0,0,0,0,0,0,0.0149,0.0131,0.0221,0.0233,0.0235,0.0222,0.0221,0.0221,0.0236,0.0238,0.0239,0.024,0.0187,0.0183,0.018,0.0133,0,0,0.017,0.0168,0,0,0,0,0,0,0,0,0.0129,0.0131,0.0221,0.0221,0.0222,0.0222,0.0221,0.0221,0.0236,0.0238,0.0239,0.024,0.0186,0.0183,0.018,0,0,0,0,0,0,0,0,0,0,0,0,0,0,0,0.0221,0.0221,0,0.0222,0.0221,0.0221,0.0237,0.0237,0.0238,0.0239,0.0185,0.0183,0.0181,0,0,0,0,0,0,0,0,0,0,0,0,0,0,0,0,0,0,0,0,0,0,0,0,0,0,0,0,0,0,0,0,0,0,0,0,0,0,0,0,0,0,0,0,0,0,0,0,0,0,0,0,0,0,0,0,0,0,0,0,0,0,0,0,0,0,0,0,0]}]],[[{"header":{"parameterUnit":"kt","parameterCategory":2,"dx":1,"dy":1,"la1":30.253999710083008,"la2":30.299108505249023,"lo1":-89.0895004272461,"lo2":-89.04439544677734,"nx":28,"ny":28,"refTime":"2022-10-11T21:00:00:Z","depth":"4","parameterNumber":2,"parameterNumberName":"U-component_of_CURRENTS"},"data":[0.0382,0.0316,0.0249,0.0166,0.0126,0.0148,0.0188,0.0239,0.0241,0.0313,0.0279,0.0355,0.0292,0.0345,0.0247,0.0242,0.0341,0.0221,0.022,0.042,0.0434,0.0447,0.0461,0,0,0,0,0,0.043,0.035,0.0288,0.0228,0.0246,0.0263,0.0303,0.0357,0.043,0.039,0.0453,0.0383,0.0332,0.0327,0.026,0.0294,0.0336,0.0215,0.0385,0.0429,0.0444,0.0454,0,0,0,0,0,0,0.048,0.0435,0.0408,0.0357,0.0356,0.0355,0.0384,0.0405,0.0441,0.0518,0.0483,0.0477,0.0531,0.0464,0.0354,0.0306,0.036,0.04,0.0416,0.0431,0.043,0.0344,0.0228,0,0,0,0,0,0.0524,0.0544,0.0514,0.0472,0.0468,0.0471,0.0498,0.0503,0.0581,0.0649,0.0621,0.0609,0.0558,0.0558,0.0456,0.0395,0.0555,0.0455,0.0467,0.0594,0.0537,0.0535,0.0544,0.0503,0.0505,0.0507,0.0507,0,0.0575,0.0575,0.057,0.0546,0.0551,0.0582,0.0579,0.0653,0.0675,0.0722,0.0701,0.073,0.0735,0.0617,0.0631,0.0545,0.052,0.0494,0.0629,0.0562,0.0556,0.056,0.0564,0.052,0.0519,0.0518,0.0517,0,0.0598,0.0612,0.0597,0.0604,0.0601,0.0613,0.0647,0.0661,0.0739,0.0749,0.0783,0.0839,0.0833,0.0816,0.0809,0.0783,0.0712,0.0633,0.0698,0.0693,0.0587,0.0586,0.054,0.0536,0.0532,0.0529,0.0526,0,0.0622,0.0616,0.064,0.0626,0.0611,0.0642,0.0661,0.0655,0.0709,0.0711,0.08,0.0807,0.0921,0.0891,0.0862,0.0789,0.0863,0.0747,0.0734,0.0875,0.0872,0.0865,0.0861,0.0906,0.0907,0.0907,0.0908,0,0.0652,0.0633,0.0634,0.0625,0.06,0.0613,0.0613,0.0631,0.0642,0.0712,0.0741,0.082,0.0893,0.0901,0.0876,0.0913,0.0855,0.0923,0.0762,0.0751,0.0867,0.0862,0.0909,0.0909,0.0909,0.0909,0.0909,0,0.0659,0.0647,0.0641,0.0619,0.061,0.0604,0.0598,0.06,0.0617,0.0651,0.0721,0.0761,0.0826,0.0839,0.0886,0.0889,0.0864,0.085,0.0849,0.073,0.0709,0.0738,0.0793,0.0793,0.0792,0.0792,0.0792,0,0.0676,0.0655,0.0648,0.0623,0.0602,0.0592,0.0576,0.058,0.0603,0.0612,0.0672,0.0723,0.0743,0.0797,0.0822,0.0842,0.0833,0.0835,0.0824,0.0822,0.0696,0.0723,0.087,0.0789,0.0789,0.079,0.079,0,0.0683,0.0659,0.0657,0.0646,0.0621,0.0599,0.0595,0.0575,0.0586,0.0613,0.0634,0.069,0.0737,0.0752,0.0773,0.0794,0.082,0.079,0.0791,0.0732,0.0849,0.0731,0.072,0.0863,0.0864,0.0866,0.0788,0,0.0679,0.0668,0.0659,0.0625,0.0612,0.0602,0.0579,0.0574,0.059,0.0586,0.0639,0.0676,0.0713,0.0717,0.072,0.0764,0.0729,0.0755,0.0726,0.0779,0.0734,0.0736,0.0705,0.0704,0.0703,0.0703,0,0,0.0687,0.0664,0.0644,0.0625,0.0611,0.0592,0.0582,0.0563,0.0554,0.0566,0.0592,0.0627,0.0643,0.0674,0.0699,0.0704,0.0694,0.0672,0.0757,0.0763,0.0769,0.0729,0.0732,0.0702,0.0702,0.0702,0.0702,0,0.0669,0.0656,0.0651,0.0626,0.0609,0.0574,0.0583,0.0545,0.0552,0.0568,0.0577,0.0625,0.0619,0.0636,0.0645,0.0693,0.0653,0.0694,0.0712,0.0752,0.0758,0.0764,0.0727,0.0729,0.07,0.07,0.07,0,0.066,0.0637,0.0635,0.0594,0.0567,0.0537,0.0531,0.053,0.0523,0.0528,0.053,0.0552,0.0564,0.0588,0.0604,0.0593,0.0621,0.0612,0.0616,0.0604,0.0643,0.0651,0.0658,0.0559,0.0558,0.0558,0,0,0.0648,0.0641,0.0595,0.0585,0.0571,0.0533,0.0519,0.0523,0.0518,0.0525,0.0516,0.0536,0.0552,0.0567,0.0571,0.0583,0.0572,0.0594,0.0601,0.0606,0.0597,0.0637,0.0645,0.0555,0.0555,0.0555,0,0,0.0638,0.0599,0.0597,0.058,0.0551,0.049,0.0487,0.0479,0.049,0.0523,0.0505,0.0511,0.0549,0.0544,0.0518,0.0557,0.0533,0.0537,0.055,0.0558,0.0564,0.055,0.0482,0,0,0,0,0,0.0606,0.06,0.0599,0.0591,0.0531,0.0485,0.0476,0.0467,0.0481,0.0481,0.051,0.0487,0.0543,0.0519,0.0514,0.0523,0.0527,0.0532,0.0536,0.0555,0.0564,0.0572,0,0,0,0,0,0,0.0602,0.0592,0.0598,0.0539,0.0526,0.0485,0.0486,0.0482,0.0483,0.0487,0.0482,0.0485,0.0475,0.0519,0.0515,0.0524,0.0483,0.0529,0.0533,0.0537,0.0558,0.0566,0.0572,0,0,0,0,0,0.06,0.0592,0.0507,0.0538,0.0526,0.0506,0.0489,0.0485,0.0489,0.0471,0.0474,0.0492,0.0473,0.0473,0.0516,0.0527,0.0486,0.0484,0.0531,0.0535,0.0538,0.0562,0,0,0,0,0,0,0.0598,0.0572,0.0504,0.0499,0.0567,0.0509,0.0502,0.0488,0.0475,0.0476,0.0479,0.0483,0.0471,0.0471,0.0471,0.053,0.0488,0.0486,0.0486,0.0534,0.0537,0.0539,0,0,0,0,0,0,0.0577,0.0568,0.0501,0.0538,0.0537,0.0512,0.0507,0.0485,0.0477,0.0483,0.0485,0.0482,0.0501,0.0469,0.047,0.0432,0.0489,0.0488,0.0487,0.0487,0.0536,0.0538,0,0,0,0,0,0,0.0572,0.0565,0.0539,0.0538,0.0537,0.0475,0.0494,0.045,0.0461,0.0485,0.0468,0.0471,0.0501,0.0499,0.0468,0.043,0.0431,0.0489,0.0488,0.0488,0.0487,0,0,0,0,0,0,0,0.0569,0.0629,0.054,0.0538,0.0537,0.0453,0.0451,0.0449,0.0461,0.0464,0.0467,0.047,0.0497,0.0495,0.0494,0.0429,0,0,0.0489,0.0489,0,0,0,0,0,0,0,0,0.0632,0.063,0.054,0.0539,0.0538,0.0453,0.0451,0.045,0.0462,0.0464,0.0466,0.0469,0.0496,0.0495,0.0494,0,0,0,0,0,0,0,0,0,0,0,0,0,0,0,0.054,0.0539,0,0.0453,0.0451,0.045,0.0462,0.0464,0.0466,0.0468,0.0496,0.0495,0.0494,0,0,0,0,0,0,0,0,0,0,0,0,0,0,0,0,0,0,0,0,0,0,0,0,0,0,0,0,0,0,0,0,0,0,0,0,0,0,0,0,0,0,0,0,0,0,0,0,0,0,0,0,0,0,0,0,0,0,0,0,0,0,0,0,0,0,0,0,0]}],[{"header":{"parameterUnit":"kt","parameterCategory":2,"dx":1,"dy":1,"la1":30.253999710083008,"la2":30.299108505249023,"lo1":-89.0895004272461,"lo2":-89.04439544677734,"nx":28,"ny":28,"refTime":"2022-10-11T21:00:00:Z","depth":"4","parameterNumber":3,"parameterNumberName":"V-component_of_CURRENTS"},"data":[0.0198,0.0218,0.024,0.0252,0.0273,0.0333,0.0362,0.0364,0.0343,0.0336,0.026,0.03,0.0159,0.0184,0.0035,0.0017,0.0005,-0.0112,-0.0112,-0.0145,-0.0148,-0.0151,0.0012,0,0,0,0,0,0.0225,0.0227,0.0267,0.0295,0.036,0.04,0.0435,0.0456,0.0449,0.0403,0.0394,0.0286,0.0167,0.0085,0.0037,-0.0015,-0.0102,-0.007,-0.0095,-0.0147,-0.0151,0.0009,0,0,0,0,0,0,0.0262,0.0272,0.031,0.0347,0.0406,0.0426,0.0452,0.0454,0.0456,0.0405,0.0364,0.0244,0.0194,0.0087,-0.0019,-0.0076,-0.0073,-0.0059,-0.0067,-0.0072,0.0067,0.0154,0.0029,0,0,0,0,0,0.0287,0.0314,0.0333,0.0385,0.0425,0.0463,0.0497,0.0479,0.0489,0.0493,0.0398,0.0319,0.0191,0.0075,-0.0015,-0.0114,-0.015,-0.0182,-0.0183,-0.0078,-0.0027,-0.002,-0.0005,-0.0164,-0.0164,-0.0164,-0.0165,0,0.0315,0.0328,0.0378,0.04,0.0425,0.0461,0.0488,0.0511,0.0516,0.0453,0.0418,0.0316,0.0267,0.0071,-0.0003,-0.0149,-0.0129,-0.0191,-0.0078,-0.003,-0.0027,-0.001,0.0007,-0.0167,-0.0167,-0.0167,-0.0167,0,0.0323,0.0356,0.0381,0.0418,0.043,0.0446,0.0498,0.0499,0.0493,0.0462,0.045,0.0375,0.0267,0.0182,0.0022,0.0018,-0.0094,-0.0114,-0.0078,-0.0082,-0.0008,0.001,-0.0172,-0.0171,-0.017,-0.0169,-0.0169,0,0.0347,0.0361,0.0408,0.0422,0.0433,0.0472,0.0484,0.0488,0.0477,0.0463,0.0442,0.0393,0.0324,0.0229,0.017,0.0084,0.0013,0.0066,0.0052,0.0102,0.0118,0.0079,0.0094,-0.0039,-0.0037,-0.0036,-0.0034,0,0.0354,0.0397,0.0421,0.0437,0.048,0.0491,0.0516,0.0523,0.0536,0.049,0.047,0.0394,0.0371,0.0276,0.0244,0.0279,0.0074,0.0106,0.0103,0.0107,0.0094,0.0107,-0.0032,-0.0032,-0.0032,-0.0031,-0.003,0,0.0382,0.0406,0.0441,0.0469,0.0482,0.0507,0.0521,0.0549,0.0526,0.0533,0.0499,0.0492,0.0435,0.0481,0.0349,0.0416,0.0359,0.0315,0.0306,0.0363,0.0398,0.0303,0.0217,0.022,0.0223,0.0226,0.0228,0,0.0374,0.0414,0.045,0.0482,0.0507,0.0545,0.0568,0.0589,0.061,0.0593,0.0576,0.0569,0.0618,0.0611,0.0564,0.0517,0.0444,0.0551,0.036,0.0354,0.0425,0.036,0.048,0.0265,0.0261,0.0257,0.0255,0,0.0373,0.0435,0.0442,0.0459,0.0524,0.0548,0.0582,0.061,0.0602,0.0646,0.0616,0.0645,0.0638,0.0633,0.0642,0.059,0.0497,0.0599,0.0595,0.051,0.0313,0.0395,0.038,0.0496,0.0493,0.049,0.0281,0,0.0391,0.0422,0.0437,0.0491,0.0523,0.055,0.06,0.0627,0.0664,0.0685,0.0676,0.07,0.0691,0.0699,0.0724,0.0656,0.0638,0.0652,0.0642,0.0611,0.0526,0.0506,0.0745,0.0745,0.0745,0.0745,0,0,0.0378,0.0415,0.046,0.0488,0.0512,0.0558,0.0583,0.0623,0.0686,0.0687,0.0722,0.0723,0.0742,0.0707,0.0726,0.0736,0.0684,0.0728,0.0644,0.0633,0.0623,0.0539,0.052,0.0745,0.0745,0.0745,0.0745,0,0.0388,0.0424,0.0449,0.0481,0.0529,0.0565,0.0571,0.0636,0.0671,0.0708,0.0723,0.0722,0.0754,0.0749,0.0746,0.0741,0.0694,0.0745,0.0722,0.0647,0.0636,0.0626,0.0543,0.0525,0.0745,0.0745,0.0745,0,0.0392,0.0426,0.0443,0.05,0.0539,0.0572,0.0601,0.0639,0.0667,0.0689,0.0739,0.0746,0.0749,0.076,0.0761,0.0761,0.0693,0.0751,0.0751,0.0729,0.0649,0.0638,0.0628,0.0753,0.0753,0.0753,0,0,0.04,0.0429,0.0481,0.0506,0.0526,0.0581,0.0606,0.0639,0.0679,0.0701,0.073,0.0745,0.0749,0.0754,0.0764,0.0764,0.0713,0.0753,0.0752,0.0752,0.073,0.0651,0.0641,0.0754,0.0754,0.0754,0,0,0.0405,0.0463,0.0481,0.0514,0.0555,0.0618,0.0641,0.0668,0.0712,0.0715,0.0739,0.0744,0.0753,0.0754,0.0758,0.0755,0.0756,0.0756,0.0759,0.0758,0.0758,0.0731,0.0762,0,0,0,0,0,0.0436,0.0451,0.0466,0.0477,0.0556,0.0604,0.0617,0.067,0.0684,0.0707,0.0736,0.0733,0.0766,0.0771,0.0771,0.076,0.0757,0.0756,0.0756,0.076,0.0759,0.0759,0,0,0,0,0,0,0.0441,0.0454,0.0466,0.0524,0.0542,0.0604,0.0634,0.065,0.0684,0.0692,0.073,0.0734,0.0751,0.077,0.077,0.076,0.0762,0.0757,0.0756,0.0756,0.0759,0.0759,0.0759,0,0,0,0,0,0.0444,0.0455,0.0567,0.0526,0.0541,0.0609,0.0634,0.0648,0.0687,0.0708,0.0716,0.0724,0.075,0.0752,0.077,0.0759,0.0762,0.0762,0.0757,0.0756,0.0756,0.0759,0,0,0,0,0,0,0.0447,0.048,0.0571,0.0578,0.0526,0.0609,0.0624,0.0646,0.0702,0.071,0.07,0.0704,0.075,0.0751,0.0752,0.0759,0.0761,0.0762,0.0762,0.0756,0.0756,0.0756,0,0,0,0,0,0,0.0474,0.0486,0.0575,0.0573,0.0581,0.0608,0.0621,0.0619,0.0699,0.0691,0.0697,0.07,0.0721,0.075,0.0751,0.075,0.0761,0.0761,0.0762,0.0762,0.0756,0.0756,0,0,0,0,0,0,0.048,0.049,0.0572,0.0578,0.0585,0.067,0.0605,0.0672,0.0737,0.0687,0.0739,0.074,0.0717,0.0721,0.0751,0.0749,0.075,0.0761,0.0761,0.0761,0.0762,0,0,0,0,0,0,0,0.0485,0.0404,0.0523,0.0582,0.0588,0.0638,0.0641,0.0644,0.0738,0.0738,0.0739,0.074,0.076,0.0761,0.0761,0.0748,0,0,0.0761,0.0761,0,0,0,0,0,0,0,0,0.0401,0.0404,0.0523,0.0524,0.0525,0.0639,0.0641,0.0643,0.0738,0.0738,0.0739,0.0739,0.076,0.0761,0.0761,0,0,0,0,0,0,0,0,0,0,0,0,0,0,0,0.0523,0.0524,0,0.0639,0.0641,0.0643,0.0738,0.0738,0.0739,0.0739,0.076,0.0761,0.0761,0,0,0,0,0,0,0,0,0,0,0,0,0,0,0,0,0,0,0,0,0,0,0,0,0,0,0,0,0,0,0,0,0,0,0,0,0,0,0,0,0,0,0,0,0,0,0,0,0,0,0,0,0,0,0,0,0,0,0,0,0,0,0,0,0,0,0,0,0]}]]]